Zurück zum Katalog

STARLINK-1828

AktivKommunikationVLEO
NORAD 46725·PAYLOAD·🇺🇸 United States

Gestartet Oct 18, 2020 von Cape Canaveral Space Force Station

Loading…

Nächste Überflüge (nächste 24 Stunden)

TLE

AktuellSource: CelesTrak SupGP

Epoche: Sep 14, 2026, 20:27 UTC

1 46725C 20073BH  26257.85256944  .00261470  00000+0  77337-3 0  2577
2 46725  53.0403  20.5381 0007465 318.0956 281.7985 15.91656150    14

Verfolge STARLINK-1828 in Echtzeit mit AllMySat

Download on the App Store